GFSMA_700_spd_057.txt.gz
Wind_Speed
11 10 8 8 10 6 9 10 11 13 10 6 8 8 8 5 4 8 9 9 10 10 11 11 11 11 10 9 10 11 10 9 9 8 8 9 10 10 9 10 10 12 12
10 8 8 8 6 7 6 7 9 11 10 10 4 1 4 1 5 8 8 8 8 9 9 10 10 9 9 10 10 9 9 9 8 9 10 10 10 10 10 10 11 12 13
5 6 9 8 4 8 10 12 5 12 14 9 7 6 4 5 4 6 7 7 7 7 8 7 7 8 9 8 7 8 7 8 9 10 12 12 12 11 12 13 13 14 14
6 4 5 12 10 10 15 14 7 17 14 11 7 5 6 10 5 6 9 8 6 5 5 5 5 6 6 7 8 9 10 11 13 15 14 14 15 16 18 17 17 17 16
6 4 6 10 11 10 7 4 17 19 15 12 7 6 10 9 4 10 8 7 7 4 3 3 5 6 8 10 12 13 14 15 16 16 17 19 22 22 22 25 28 23 18
7 9 4 5 9 9 9 11 15 14 11 9 9 9 15 15 8 9 11 10 11 8 10 7 8 10 12 13 14 15 17 19 20 22 23 23 22 23 25 25 24 23 21
6 9 6 10 8 6 12 14 13 14 12 12 8 11 12 16 13 14 14 10 14 15 14 14 14 14 14 16 18 20 22 22 23 22 21 20 21 21 22 22 21 20 19
8 7 7 8 10 6 8 11 14 14 17 12 9 14 7 11 10 10 11 10 13 14 15 17 17 16 19 20 23 24 23 22 21 21 20 20 21 22 22 22 21 19 20
5 7 7 9 7 7 7 10 10 8 13 11 7 10 7 8 15 19 19 12 8 12 19 20 18 20 22 22 23 23 23 21 20 20 21 21 22 22 22 22 21 20 20
5 8 5 7 6 7 9 7 12 11 10 8 12 13 12 11 13 16 17 15 12 12 20 20 22 23 22 21 19 19 20 20 20 20 20 20 20 21 21 21 21 21 20
7 6 7 7 6 9 8 9 8 8 10 14 15 13 12 18 14 9 13 15 14 16 19 20 18 19 18 17 17 17 18 19 19 19 20 22 23 23 22 22 22 21 21
9 8 5 5 8 8 7 8 10 10 9 14 16 17 23 14 17 10 9 15 17 17 17 16 15 15 15 14 14 15 16 18 20 22 24 26 26 25 24 24 23 23 23
10 10 9 6 6 8 7 7 9 9 8 8 14 15 18 17 19 15 10 20 18 17 15 13 11 12 11 10 13 14 17 20 23 25 27 26 26 26 24 22 23 24 23
13 13 13 10 7 8 7 7 7 8 8 8 9 7 14 7 12 19 18 16 17 16 15 12 9 7 7 9 11 14 17 20 24 24 23 25 25 22 23 24 26 25 24
13 16 15 12 10 9 9 8 9 8 7 7 6 7 8 8 14 16 14 13 12 13 10 8 5 4 5 9 13 17 21 25 23 20 23 25 23 18 22 24 25 22 19
13 11 14 14 12 10 10 10 10 10 9 8 8 7 8 10 11 14 14 10 9 7 6 3 0 3 7 11 15 21 25 23 18 21 24 27 25 24 20 23 22 17 19
18 14 10 10 11 10 10 10 11 12 12 11 9 9 8 10 12 11 10 10 9 7 4 2 2 6 10 14 18 20 18 14 16 21 28 31 32 31 28 20 14 15 18
21 18 14 12 11 11 11 12 13 12 13 13 11 11 11 10 9 10 10 9 8 7 6 4 5 7 10 14 16 17 15 16 21 27 30 32 32 32 30 24 16 18 20
23 22 18 14 15 14 13 13 13 14 14 14 14 13 12 13 12 11 10 9 9 9 8 7 7 10 12 15 16 16 16 20 25 29 31 34 34 32 27 23 21 19 22
26 24 22 19 16 16 15 15 14 14 13 15 16 16 17 15 14 14 14 13 12 12 12 13 12 12 13 15 16 15 17 23 26 28 32 33 33 31 26 20 19 19 23
28 26 24 22 22 20 19 18 16 15 14 14 15 17 18 19 20 20 19 17 17 16 16 16 15 17 14 13 14 17 21 25 27 31 33 33 33 27 23 20 19 20 22
30 30 28 27 25 24 21 20 19 17 17 17 15 15 17 20 21 21 21 19 19 18 17 17 18 15 12 13 16 21 25 29 31 34 36 32 30 23 24 23 22 23 26
29 31 31 29 28 25 24 23 22 21 19 18 18 17 16 17 19 21 22 21 20 19 18 18 16 12 14 17 21 24 27 31 34 35 35 30 26 25 25 25 20 22 25
30 30 30 31 30 28 25 25 24 24 23 22 21 20 19 18 18 19 19 20 18 18 16 16 16 17 18 21 24 28 31 34 34 31 32 31 26 28 25 22 21 24 27
29 30 29 30 31 29 28 26 26 27 26 25 23 22 22 21 20 21 20 19 18 17 16 18 19 19 20 23 27 30 34 34 32 31 32 28 27 24 21 21 20 24 27
24 28 29 29 29 29 28 27 27 28 27 26 26 25 24 22 22 22 23 21 18 15 18 19 20 21 24 27 30 32 30 30 31 32 29 28 27 22 22 22 23 25 27

GFSMA_700_spd_060.txt.gz
Wind_Speed
12 10 13 10 9 13 11 11 9 12 9 11 9 7 14 12 11 11 11 10 10 10 10 10 10 10 9 8 8 9 9 10 9 10 10 11 11 11 12 11 12 11 11
10 8 9 10 7 10 10 15 15 7 7 13 10 8 8 10 10 9 9 8 8 7 8 8 8 8 8 7 7 8 9 9 11 11 12 12 12 13 13 12 11 11 12
8 6 7 7 11 10 10 15 12 11 10 13 10 11 7 9 9 8 7 7 6 6 6 7 7 8 8 8 9 10 11 11 13 14 14 15 16 15 13 13 14 15 16
3 5 5 9 11 4 8 13 15 16 15 14 10 5 12 11 8 7 7 7 5 5 5 6 8 8 10 12 13 14 15 15 17 19 20 20 20 18 19 20 19 19 19
5 8 10 12 10 8 4 18 15 16 14 13 8 10 10 11 9 10 7 6 6 5 4 6 8 11 13 14 16 17 18 19 22 23 21 20 19 20 20 20 19 18 17
8 9 7 9 9 9 9 14 11 16 16 14 12 14 17 15 10 11 11 11 11 11 11 12 13 15 17 17 19 22 23 23 21 20 18 19 19 19 19 19 18 18 17
6 8 7 9 8 12 13 12 11 14 13 11 11 17 14 9 13 13 15 14 14 15 16 17 17 18 20 21 23 23 22 20 19 18 18 18 18 18 18 18 17 16 16
6 7 8 7 9 11 10 11 14 11 12 12 13 14 11 9 16 15 15 16 16 16 16 21 22 24 24 23 22 20 20 20 19 19 18 18 17 17 16 16 16 16 16
8 6 8 7 7 10 9 14 14 14 11 10 6 7 10 16 17 17 17 19 17 17 19 22 24 25 24 22 20 19 19 19 18 17 17 17 16 16 16 16 17 17 17
10 7 8 8 8 8 10 11 11 10 12 12 14 11 14 14 14 15 17 20 18 19 22 22 22 21 20 20 19 17 16 16 16 16 16 17 18 17 18 18 18 17 18
12 9 8 8 8 8 10 10 12 11 11 16 15 15 16 10 12 15 18 19 22 22 21 21 18 17 18 16 15 14 14 15 16 17 17 17 17 17 17 17 17 17 17
11 12 9 8 8 8 9 8 11 10 12 16 16 18 19 13 14 12 17 20 22 20 20 18 16 15 15 12 11 12 14 16 17 18 19 19 18 17 17 17 18 18 17
12 12 12 11 9 9 9 7 9 10 12 16 15 23 21 16 14 16 18 19 22 21 19 16 13 12 11 9 8 11 13 15 16 19 20 22 15 18 18 19 20 18 18
15 14 13 14 12 10 9 8 9 9 13 14 11 14 13 14 17 17 20 19 19 18 16 15 12 9 6 5 8 12 15 13 15 18 20 19 15 17 14 17 18 16 15
15 15 15 15 14 13 12 11 8 9 9 11 11 12 14 15 14 18 19 19 17 16 12 9 7 4 2 5 9 13 14 13 14 18 20 19 18 17 14 11 12 14 13
15 14 16 16 17 15 14 13 11 9 9 9 11 11 11 12 16 18 17 16 14 11 9 7 4 2 2 6 10 14 15 13 14 17 20 24 25 23 20 16 11 10 13
18 16 16 17 15 16 15 15 14 13 10 9 9 12 12 12 16 17 16 12 11 9 8 6 4 2 5 9 13 14 14 11 13 19 23 26 26 24 21 13 10 10 12
20 17 15 12 15 16 15 15 16 16 15 12 10 11 13 15 15 14 13 11 11 10 8 6 5 7 9 12 14 14 13 12 16 22 25 27 28 26 23 16 15 14 14
24 21 19 17 17 15 14 15 16 16 17 17 16 14 14 16 17 17 16 14 13 12 11 11 10 10 10 14 14 14 13 14 19 24 26 29 28 26 21 16 17 17 17
30 27 23 19 18 18 17 17 17 17 19 19 20 19 17 16 17 18 18 17 16 15 14 13 12 12 12 15 16 15 12 16 19 23 26 29 27 24 17 17 18 18 16
33 32 30 26 23 22 21 19 18 17 18 21 21 21 22 21 20 20 20 19 18 17 17 16 15 15 14 16 17 15 16 19 21 25 26 26 22 19 17 19 21 20 17
35 34 33 30 27 25 23 21 20 20 19 20 21 23 23 23 24 24 24 23 23 22 21 21 18 17 16 16 16 15 18 21 24 27 31 21 23 18 18 21 21 18 18
38 37 37 35 32 29 26 24 23 23 23 22 21 21 22 23 24 25 25 25 25 25 24 22 21 19 17 15 16 17 20 23 26 28 29 25 23 19 19 19 18 20 21
39 38 37 37 36 33 30 28 26 26 25 25 24 23 23 22 21 22 23 25 26 25 24 24 23 17 18 16 18 21 21 25 28 25 27 28 23 20 20 19 20 20 22
37 36 34 36 36 35 33 31 30 31 28 26 26 26 25 24 22 22 23 22 22 22 21 21 21 19 18 19 21 22 24 28 28 26 25 25 23 21 19 21 21 21 23
32 33 33 32 33 34 34 33 32 32 32 29 28 28 27 26 25 25 26 25 24 20 21 24 23 20 19 20 22 24 26 26 28 27 25 26 23 19 19 20 21 21 23

GFSMA_700_spd_063.txt.gz
Wind_Speed
11 11 13 11 9 6 9 6 9 14 15 11 9 11 11 13 13 11 11 10 10 10 10 9 9 9 9 8 8 9 9 10 10 10 12 12 12 12 13 14 13 13 13
7 9 9 10 9 7 12 10 8 8 13 10 8 10 11 12 10 9 9 8 9 9 9 10 9 8 8 7 8 9 10 11 12 13 15 15 16 15 14 15 15 15 15
5 3 6 6 10 9 10 10 9 10 14 9 10 10 12 9 8 8 7 8 8 8 8 8 8 8 9 11 13 13 15 15 16 19 21 20 18 18 18 18 17 16 16
5 3 4 7 11 10 11 9 9 13 14 11 10 12 11 9 8 8 8 7 7 6 6 7 8 11 13 15 16 16 18 19 21 21 20 19 19 18 17 16 16 15 14
5 6 7 9 9 9 15 14 10 11 11 12 11 11 10 10 9 9 9 7 7 6 7 10 12 15 16 18 19 21 21 20 18 17 16 16 16 16 16 16 15 15 14
5 7 7 8 4 7 16 12 10 12 13 14 10 12 11 11 9 10 10 10 12 14 15 15 16 18 21 22 23 22 19 17 16 15 14 14 15 15 15 15 15 15 15
5 6 5 5 5 5 12 13 15 12 14 14 15 15 13 12 11 12 13 13 15 17 18 20 21 23 24 23 20 18 16 16 15 14 14 15 15 15 15 15 15 15 15
4 4 6 6 8 9 8 11 9 13 11 9 12 11 5 10 13 14 14 15 16 18 20 23 24 24 23 21 18 16 15 14 14 15 15 15 15 16 15 15 14 15 16
7 5 5 6 7 7 11 10 11 9 9 12 9 10 12 11 14 16 15 16 20 22 23 24 24 22 21 19 18 16 15 14 13 14 14 13 13 13 14 14 14 15 16
7 6 4 5 7 6 9 14 12 13 11 9 14 14 14 13 13 15 16 19 23 22 24 23 22 20 19 17 15 13 12 12 13 13 13 12 12 11 12 13 15 16 17
7 8 5 2 3 6 6 10 11 9 9 13 13 14 13 12 13 17 20 22 25 23 22 20 18 18 16 14 12 11 11 12 12 13 14 13 14 15 14 15 16 17 17
9 7 7 5 4 6 6 6 9 10 12 16 15 15 14 11 13 17 20 22 24 23 20 17 15 14 12 11 9 10 12 10 12 15 16 13 14 16 15 16 17 17 17
10 9 8 6 5 5 5 6 6 7 12 14 15 17 15 14 13 17 20 22 22 21 19 16 14 11 9 7 6 8 8 8 10 14 15 14 12 13 13 14 14 14 15
12 11 11 9 7 7 6 6 7 7 12 12 14 19 17 14 15 17 19 20 20 18 16 14 11 8 4 2 4 7 5 4 8 13 15 15 14 14 16 16 14 14 13
18 14 13 13 11 9 7 7 7 7 11 9 12 17 12 14 16 18 19 19 18 17 14 12 10 7 3 2 4 8 6 6 9 14 16 18 20 21 20 18 15 13 13
19 17 16 16 15 12 10 9 9 8 8 8 11 14 14 14 16 18 19 18 16 14 12 11 8 6 4 6 6 10 10 8 12 15 18 21 24 26 24 20 16 14 13
17 16 17 17 16 15 13 12 12 11 10 10 10 11 13 15 17 20 20 17 15 14 12 10 8 6 7 8 11 15 12 10 13 17 21 24 27 26 24 19 14 14 13
19 17 16 18 19 16 16 16 15 13 13 12 12 12 12 13 16 20 19 17 14 13 12 10 9 8 9 12 14 14 14 12 14 19 22 26 28 28 23 17 15 16 15
24 23 21 20 17 18 17 17 18 17 16 15 14 13 14 15 16 18 18 17 16 14 13 12 11 11 11 15 15 17 15 13 16 20 23 27 29 28 22 18 17 19 16
28 27 25 23 21 19 18 17 19 19 19 20 19 18 17 17 18 19 19 19 18 17 17 16 15 15 15 17 19 19 14 16 16 19 22 28 28 27 27 21 19 20 16
32 30 29 27 24 23 22 22 21 21 21 22 23 23 22 21 21 22 22 22 22 21 21 21 19 18 16 18 21 21 18 18 16 21 22 26 23 24 23 20 20 18 17
37 36 34 32 30 27 25 23 23 23 23 23 24 25 25 27 26 25 25 24 25 25 24 23 22 20 18 20 22 21 21 22 19 20 27 24 23 23 21 20 19 17 19
39 39 38 37 35 32 29 27 26 27 25 26 25 26 27 28 28 28 29 29 29 28 27 27 25 23 22 22 23 21 22 22 21 23 28 25 25 23 22 20 19 19 21
39 40 40 40 39 37 34 31 29 30 29 28 28 27 28 28 28 29 29 30 30 29 28 28 27 25 25 23 23 23 22 21 21 24 27 26 24 25 23 21 20 20 20
36 38 39 41 40 38 37 35 33 34 33 31 30 31 30 30 28 28 29 29 28 26 26 27 28 27 25 22 21 23 22 23 23 25 25 27 25 26 25 20 21 21 21
31 33 35 36 37 37 37 36 37 36 36 34 32 32 32 32 30 30 30 30 29 24 24 25 27 27 24 21 23 25 23 22 24 26 25 27 26 26 25 21 22 22 23

GFSMA_700_spd_069.txt.gz
Wind_Speed
8 9 11 12 13 12 11 9 10 8 9 9 8 9 9 11 11 11 11 10 9 9 9 8 7 7 8 10 12 13 14 16 18 19 19 19 19 19 18 17 16 16 16
7 8 9 9 9 10 9 8 10 9 9 8 8 9 8 9 8 9 9 9 8 7 7 7 6 7 9 12 15 17 19 21 21 20 19 18 17 16 15 14 14 14 14
5 5 4 6 6 9 10 9 9 7 7 8 9 9 7 7 7 7 7 7 6 6 6 7 8 10 12 16 18 19 20 20 18 17 16 15 15 15 15 15 15 15 14
6 4 3 4 4 7 10 8 6 7 6 7 8 7 6 6 7 6 6 5 5 7 8 10 11 14 16 18 18 18 18 16 15 14 14 14 14 14 14 14 14 14 15
6 5 5 4 3 3 6 6 8 9 6 7 8 7 5 5 5 5 4 5 7 11 12 13 15 17 19 17 17 15 14 13 12 12 12 12 12 12 13 14 14 15 16
5 6 7 5 3 1 6 7 8 7 5 6 5 5 4 4 4 3 5 10 13 14 16 17 20 20 17 15 14 13 11 10 10 11 11 11 12 13 14 16 17 18 19
6 6 7 6 4 1 5 8 9 6 5 4 6 5 3 3 3 5 9 12 16 19 21 22 21 18 15 13 11 10 9 9 10 11 11 13 15 16 17 17 18 18 19
3 4 5 5 6 4 5 5 10 8 5 6 7 6 4 4 4 7 9 13 17 20 21 21 18 15 13 11 8 8 10 11 12 12 14 14 14 15 16 18 18 19 19
3 3 4 4 7 8 7 7 9 9 6 7 7 7 6 6 6 9 11 14 19 21 21 18 15 13 10 8 8 9 10 11 12 12 12 14 16 18 19 20 22 22 22
2 2 3 4 5 7 8 8 10 10 8 9 8 8 9 8 7 9 13 16 19 20 18 16 14 10 7 6 8 10 9 11 12 13 14 18 20 21 22 23 23 24 23
3 2 3 4 3 4 6 8 11 10 9 8 11 11 9 9 8 10 14 16 19 18 16 13 11 7 5 7 11 12 7 9 11 15 17 18 20 22 23 25 25 24 22
3 3 3 3 2 3 5 9 11 9 10 11 14 12 10 9 10 11 14 16 17 17 15 12 9 5 3 7 11 13 7 8 11 14 18 21 24 26 26 25 24 23 23
5 6 5 5 4 4 5 7 9 9 8 13 17 14 12 11 13 13 14 16 17 16 13 10 7 4 1 5 10 13 10 9 13 14 18 21 24 27 28 27 25 23 21
9 9 8 6 6 6 7 6 6 9 11 13 17 15 13 11 14 14 15 16 16 14 13 11 8 5 4 6 9 12 14 12 14 15 18 22 26 29 29 25 22 20 19
12 12 10 8 7 7 6 7 8 7 9 11 13 16 15 15 16 15 17 17 16 15 13 12 10 9 7 8 10 11 14 15 15 15 18 22 25 28 30 26 24 22 20
13 13 13 12 11 9 8 8 8 8 8 8 11 14 17 16 16 17 17 18 17 16 15 13 12 11 11 11 12 13 14 15 16 16 18 21 25 28 31 28 25 21 19
16 17 17 16 15 13 11 10 9 8 8 7 8 11 14 16 17 18 18 19 18 18 16 15 13 13 13 14 14 16 16 16 19 19 19 22 25 29 31 29 26 22 21
16 15 16 18 18 17 14 12 11 10 9 9 9 9 12 15 17 19 20 20 20 20 19 17 16 16 15 16 16 17 17 18 21 22 21 23 26 29 31 30 27 23 21
19 18 17 17 19 20 18 16 15 14 13 12 11 10 11 13 14 18 20 21 22 22 20 18 18 18 17 18 18 19 20 21 23 24 24 25 27 29 31 30 25 22 19
23 22 21 18 19 20 21 20 19 17 17 16 15 14 14 13 14 16 19 22 23 23 22 21 19 19 19 19 21 22 21 22 23 24 25 26 26 29 32 29 26 22 19
27 26 25 25 23 23 22 21 21 21 21 21 20 19 17 17 17 18 19 19 22 23 23 23 21 21 21 21 23 24 25 25 23 24 24 26 27 28 28 27 24 22 19
29 30 30 29 29 28 25 22 22 22 23 24 23 23 23 22 21 21 21 22 23 24 24 25 24 24 23 24 26 26 26 28 28 25 24 25 27 29 29 28 23 22 20
33 32 31 32 32 31 29 26 25 27 27 27 26 26 27 26 26 26 26 26 25 26 27 27 26 25 26 26 29 28 29 29 29 28 28 24 27 29 28 28 24 22 21
36 34 33 33 33 33 32 31 30 31 32 31 31 30 29 29 29 29 29 30 30 30 30 29 29 28 29 30 31 31 31 30 29 29 28 27 28 29 30 26 23 22 23
36 35 35 35 35 34 33 33 34 36 37 35 34 33 33 32 30 29 32 32 32 31 32 31 32 31 31 31 32 31 30 30 29 30 27 27 28 29 29 27 25 25 24
36 36 36 36 35 34 34 34 36 38 40 38 37 37 36 34 32 32 34 34 35 31 31 32 32 32 32 31 31 30 28 27 28 31 27 27 28 29 30 27 25 26 26

GFSMA_700_spd_072.txt.gz
Wind_Speed
9 10 11 13 11 10 8 7 7 8 7 9 10 10 10 10 10 11 10 9 8 8 8 8 8 9 12 13 15 18 19 20 20 20 19 17 16 15 14 14 14 15 15
11 12 10 10 11 11 7 7 7 7 6 8 9 9 8 8 7 8 9 9 8 7 7 8 9 13 16 18 19 21 20 19 18 17 15 15 14 14 13 14 14 15 14
8 10 9 8 9 9 8 7 6 6 6 8 9 8 7 6 6 6 7 7 7 6 8 10 14 17 19 19 19 18 17 16 15 14 13 13 13 14 15 15 15 15 15
5 6 8 9 10 9 9 7 6 5 6 7 7 6 7 6 5 5 6 6 6 9 11 13 16 18 18 17 16 15 14 13 13 13 13 13 14 16 17 17 17 17 17
3 5 6 8 9 9 8 6 6 8 7 7 5 5 5 5 4 4 4 5 8 11 14 17 18 18 16 14 13 13 12 12 12 13 14 15 16 17 18 19 19 20 20
3 4 6 7 9 8 7 7 8 8 7 7 6 4 5 4 4 4 4 7 10 14 17 19 18 15 13 12 12 12 12 13 14 14 15 16 17 18 19 20 21 21 20
5 3 6 5 7 8 9 9 7 6 4 4 6 3 3 4 5 6 7 10 14 17 18 18 15 12 11 11 11 12 13 14 14 15 17 18 20 21 21 22 23 23 21
4 3 5 3 4 6 8 7 9 6 6 6 5 7 3 10 4 6 10 13 16 19 18 16 13 11 10 10 11 12 14 15 16 18 19 20 22 23 24 25 24 22 23
3 3 3 3 4 4 6 8 10 10 3 7 5 10 6 3 7 6 12 16 18 18 16 13 11 9 9 11 13 13 15 17 17 17 19 22 24 25 26 27 26 24 22
3 3 3 4 5 5 5 8 10 9 9 6 7 7 9 8 13 3 11 16 17 16 14 12 9 8 8 11 13 12 12 14 16 18 21 22 24 27 29 29 28 25 21
2 3 3 3 5 7 8 9 10 11 12 8 7 6 8 9 8 15 6 13 14 14 12 10 7 5 6 10 13 12 10 11 15 19 22 24 28 30 31 29 27 24 21
1 2 3 2 2 4 7 9 13 12 13 10 10 11 7 11 6 7 6 12 12 14 11 9 6 2 3 8 13 14 13 14 17 20 21 24 27 29 31 29 25 22 20
3 3 4 3 3 4 5 8 12 13 12 13 15 10 13 12 10 9 11 10 8 13 12 9 6 3 3 7 10 14 16 17 18 19 21 23 26 29 32 30 27 23 20
6 3 4 5 3 4 4 5 8 10 11 13 18 15 13 14 16 14 11 12 5 9 11 11 8 6 4 6 9 13 16 17 19 20 21 23 26 29 32 32 29 23 21
10 7 6 6 4 5 5 6 6 8 9 11 15 15 14 15 18 18 18 18 16 7 6 13 11 9 8 8 9 12 14 17 19 20 21 23 25 28 31 34 32 25 23
14 10 8 7 8 7 7 6 6 7 8 9 12 16 16 16 19 20 20 20 19 16 10 12 14 13 11 12 12 13 15 17 18 20 21 23 25 27 31 34 31 26 23
16 14 11 11 10 10 10 8 7 6 8 9 10 13 16 17 19 22 22 22 21 19 18 17 15 16 14 14 15 16 17 18 20 21 23 23 25 27 29 32 32 27 24
16 17 15 14 13 13 13 11 9 8 8 8 8 10 13 16 19 22 23 23 24 23 21 20 19 17 17 17 17 17 18 19 20 22 25 25 26 27 28 31 32 27 24
18 18 17 16 13 15 16 15 13 12 11 10 9 10 11 14 17 20 23 24 24 24 23 22 20 20 20 20 20 20 20 21 22 24 27 27 26 27 29 31 32 29 25
22 21 20 18 17 16 18 18 17 16 14 14 13 12 12 12 15 18 21 24 25 26 26 24 23 22 22 22 21 21 22 24 25 23 24 29 30 24 26 28 30 29 25
23 24 24 24 23 21 20 20 20 19 19 18 18 18 16 15 16 17 18 20 23 25 26 27 26 25 24 24 24 24 25 26 25 27 24 25 31 29 25 27 29 29 27
27 27 29 29 28 26 25 22 20 21 20 21 21 20 21 21 19 19 19 20 21 22 23 25 26 26 26 26 26 27 27 28 27 26 27 26 26 28 26 26 29 28 26
32 33 32 33 33 31 30 27 24 25 25 24 23 23 23 24 23 24 23 24 23 23 24 24 26 26 27 28 29 28 28 29 30 28 27 29 27 29 25 25 28 29 26
38 38 36 36 36 35 34 32 29 30 31 30 28 27 26 26 27 26 27 27 27 27 27 27 27 27 28 30 31 32 31 30 30 30 29 27 25 25 27 25 26 28 26
41 40 38 37 38 36 36 35 35 36 37 35 33 31 30 30 28 29 30 30 30 30 30 29 30 30 30 31 31 32 31 30 28 27 28 28 26 26 25 25 23 26 27
47 45 42 39 37 35 35 35 37 39 41 40 37 37 36 34 33 32 32 33 33 29 29 31 33 30 32 32 31 31 28 29 28 28 28 28 25 27 27 27 26 23 26

GFSMA_700_spd_078.txt.gz
Wind_Speed
5 10 13 11 11 9 7 8 14 15 9 11 11 13 13 6 13 11 11 12 12 12 13 14 17 19 21 23 23 21 21 21 21 21 21 20 19 20 19 19 19 17 17
11 8 7 8 10 9 7 9 15 9 11 9 12 10 9 8 8 10 9 11 12 13 15 17 19 21 21 22 21 21 20 20 21 21 21 21 21 21 21 20 19 18 18
7 6 9 9 4 8 5 11 13 10 7 11 8 9 10 10 7 5 8 12 13 16 18 18 19 21 21 21 20 20 20 21 22 23 23 23 22 22 22 21 20 18 18
9 3 9 6 7 8 4 10 7 7 10 10 14 13 12 13 7 14 12 14 15 18 19 19 19 20 20 19 19 20 21 23 24 24 24 25 25 24 22 21 19 18 17
2 3 5 3 7 8 10 8 13 9 13 9 13 11 12 13 10 17 9 14 15 18 17 18 19 19 19 19 20 21 23 23 24 26 28 28 27 25 24 22 20 18 16
7 3 7 4 7 7 8 5 9 10 9 11 11 14 12 8 9 10 14 17 10 16 18 15 17 18 18 19 21 22 22 24 25 27 28 29 30 29 27 24 20 17 17
8 7 7 6 9 2 4 10 12 8 5 10 9 6 19 15 15 12 10 6 9 16 14 14 16 17 17 19 21 21 22 23 26 28 28 32 33 32 29 26 21 17 15
7 7 8 7 4 4 8 8 16 11 15 14 11 8 9 13 11 2 10 8 14 14 14 13 15 15 15 19 19 19 21 23 25 26 29 31 32 32 30 26 22 18 16
5 5 5 7 9 5 10 12 13 7 10 12 14 10 11 11 3 4 8 12 11 13 12 13 12 15 15 17 20 20 21 23 25 27 27 30 32 33 31 28 24 22 20
4 5 5 6 6 10 7 8 10 10 10 17 11 10 14 10 6 6 7 7 10 11 8 9 11 14 15 19 21 22 22 24 26 26 27 29 31 32 33 30 25 22 21
3 5 7 7 5 6 11 7 15 15 19 13 12 11 14 17 16 6 5 4 8 8 5 5 7 11 13 15 17 18 21 23 24 27 28 28 29 32 33 33 28 24 23
3 4 6 9 6 8 5 7 8 15 18 18 18 17 22 20 18 13 2 3 2 4 5 3 2 6 9 12 14 16 19 19 22 25 26 27 28 30 33 34 31 27 25
5 6 4 4 4 5 4 6 10 12 15 13 17 18 29 22 17 15 12 5 4 4 5 4 1 3 7 9 11 14 15 18 21 23 24 26 28 28 31 33 33 29 26
6 7 3 3 2 3 3 4 4 9 10 10 11 19 19 26 22 18 19 17 10 3 5 6 6 6 4 7 10 13 14 16 17 19 21 23 25 27 27 29 32 31 28
5 10 8 6 4 4 4 1 2 5 5 4 10 14 19 17 25 20 22 23 15 11 7 8 14 12 5 8 9 12 14 16 17 18 20 22 24 25 27 26 28 30 29
7 15 11 8 6 4 4 2 2 6 5 7 5 17 20 13 22 24 25 23 20 17 13 8 6 15 6 9 11 11 14 17 18 18 19 21 23 24 25 24 25 28 29
11 14 10 8 7 6 5 3 2 3 4 4 5 11 20 15 12 16 19 26 25 24 20 16 15 12 8 10 12 14 17 19 19 19 20 21 23 24 24 24 23 25 27
14 14 11 10 7 8 7 6 6 4 5 3 5 6 9 18 20 17 17 18 24 27 24 23 18 18 18 16 16 16 17 19 21 23 22 23 24 23 22 22 21 22 24
15 15 14 13 13 12 11 10 10 9 6 5 4 5 6 10 13 15 17 18 17 20 22 21 20 20 20 20 21 21 20 20 22 24 25 26 23 23 23 21 22 20 22
16 17 17 16 16 15 16 15 14 13 11 9 8 7 7 6 8 12 16 16 17 20 21 22 21 20 21 22 24 24 23 20 22 23 24 26 26 25 24 22 20 19 20
20 18 19 19 18 18 18 16 16 16 15 14 13 13 11 10 9 10 11 12 14 16 17 18 20 21 20 21 22 23 24 23 22 23 25 27 26 26 25 24 16 15 18
22 23 23 22 22 21 19 18 17 16 16 17 17 17 16 15 14 13 12 13 14 14 15 16 16 17 17 20 20 22 23 25 24 21 23 24 26 27 21 21 18 15 17
24 25 26 26 25 23 21 21 21 20 19 19 18 19 19 19 19 18 18 18 18 18 17 17 18 17 19 20 23 23 24 25 25 23 25 24 23 20 17 17 18 16 17
29 28 27 28 28 26 25 24 25 26 25 25 25 23 22 21 21 20 20 21 22 21 22 23 22 21 23 23 25 27 27 27 26 23 24 24 21 20 21 19 21 20 16
32 32 30 28 29 28 26 27 29 30 31 29 28 29 28 25 22 23 26 25 24 22 22 23 25 25 24 24 25 27 26 29 27 22 20 25 22 22 20 21 21 22 21
37 35 32 31 30 29 28 29 31 34 35 33 32 31 31 31 29 27 28 29 32 26 27 25 27 27 27 25 24 26 27 27 28 25 18 24 23 24 24 23 23 22 22

GFSMA_700_spd_084.txt.gz
Wind_Speed
15 14 15 14 13 13 11 10 14 15 14 16 13 14 15 13 13 15 15 18 22 24 24 24 24 24 22 21 21 20 20 19 18 17 15 14 12 11 10 9 10 10 11
16 13 12 13 12 15 12 15 14 13 11 13 15 14 11 10 11 15 17 21 22 23 23 23 23 22 21 21 21 21 21 20 20 19 17 15 14 13 11 10 9 9 10
11 12 13 14 15 14 14 14 16 15 14 11 15 18 14 10 14 17 20 21 21 21 22 21 22 21 22 22 23 23 23 23 23 22 21 19 17 14 13 11 9 9 9
10 13 11 11 11 14 14 12 13 16 18 16 13 15 18 20 19 18 19 20 20 20 20 20 21 22 23 23 23 23 23 23 24 25 24 22 20 16 14 11 10 10 9
7 6 12 13 13 12 11 13 17 18 14 13 14 16 20 23 22 19 19 19 19 19 19 19 22 22 22 22 21 21 22 23 25 26 27 26 23 19 16 14 12 11 10
9 8 7 14 9 10 14 15 14 14 11 17 17 15 18 22 23 21 19 18 19 19 19 21 20 20 20 19 20 19 21 23 25 27 28 29 26 21 18 15 13 11 10
7 6 13 15 13 12 12 16 15 15 15 20 19 19 17 19 23 22 20 19 18 18 19 21 19 17 16 19 20 22 22 23 25 26 27 29 28 24 19 17 15 14 13
9 8 8 12 17 10 10 13 13 12 8 14 17 15 15 17 21 21 20 18 18 18 19 20 19 17 18 19 21 23 24 25 26 25 27 27 29 27 23 19 16 15 14
9 9 8 11 9 11 12 14 12 11 14 12 8 16 11 12 18 19 19 18 18 17 17 18 19 17 17 17 19 22 22 24 24 24 25 26 26 27 25 22 18 17 16
7 8 9 9 11 10 15 16 13 13 13 11 14 13 12 13 14 16 18 17 16 15 16 16 16 15 15 15 17 20 20 21 21 22 23 24 25 26 27 25 20 17 15
8 8 9 8 9 10 12 19 13 16 14 15 14 15 12 13 14 13 13 12 11 10 12 11 11 12 13 14 16 17 17 18 19 20 22 22 23 25 25 25 23 18 16
8 8 8 10 12 12 10 15 13 14 18 20 16 14 12 10 14 15 15 12 9 8 9 9 8 8 9 11 12 13 14 15 17 18 20 21 22 23 23 23 24 21 18
5 8 10 13 14 12 12 11 14 17 21 22 19 18 16 12 12 14 15 12 10 8 7 7 6 5 4 6 7 9 11 13 15 16 18 20 20 20 21 22 22 22 20
8 9 8 10 11 12 12 12 15 15 19 19 23 24 21 16 15 15 14 14 11 9 7 5 5 4 2 1 4 7 9 12 13 14 16 17 18 19 19 20 20 20 21
9 9 7 6 7 8 11 12 14 17 23 22 18 28 27 22 19 18 16 14 14 11 8 10 9 8 4 2 4 6 9 12 13 14 15 17 17 17 18 19 19 18 19
9 11 8 7 6 7 8 9 11 13 17 19 18 27 31 28 23 22 20 18 17 15 13 13 13 10 5 5 5 7 11 13 15 15 15 16 17 17 17 18 18 17 17
12 7 10 10 7 7 8 7 7 10 12 19 20 22 32 33 30 24 23 23 22 20 18 18 18 8 6 7 10 11 13 14 15 15 16 17 17 17 16 17 17 17 16
14 14 12 13 12 10 8 6 5 8 11 11 15 20 29 33 33 32 28 28 28 28 27 24 23 18 15 16 17 16 16 19 17 17 16 17 17 17 17 18 18 16 15
14 15 16 13 13 11 11 9 8 7 8 8 9 11 24 28 24 26 26 34 34 32 31 30 30 28 25 24 23 23 22 21 19 18 18 18 19 19 19 19 19 16 13
15 14 14 15 15 15 15 12 10 10 9 9 8 8 10 17 26 29 24 22 26 27 26 27 31 31 31 31 31 27 24 21 19 18 17 18 20 20 21 21 18 13 11
18 16 16 16 15 15 14 13 14 15 12 12 12 11 10 11 12 15 17 19 21 21 21 23 24 24 24 26 27 24 22 21 19 16 16 16 20 20 22 19 17 13 11
23 21 18 18 15 14 15 16 15 15 14 15 14 15 15 16 14 14 14 16 17 18 18 20 19 19 17 18 19 20 21 20 17 14 18 16 20 19 20 19 17 18 14
24 24 20 20 19 17 16 17 19 19 18 17 16 16 16 17 17 17 18 18 20 20 18 18 18 17 18 17 21 21 23 22 20 20 23 19 20 19 21 19 17 16 15
28 27 24 25 23 21 20 20 20 22 21 20 20 19 19 19 18 19 19 21 20 20 20 22 21 18 20 20 23 25 26 25 22 19 24 23 20 18 19 18 17 16 15
22 21 25 27 27 24 22 24 24 25 24 23 21 21 22 22 22 23 25 25 25 23 21 23 23 22 23 23 25 27 26 27 23 18 20 25 18 17 17 16 17 18 18
20 23 28 26 29 28 27 27 27 29 28 28 27 26 25 24 23 25 29 29 31 27 26 27 28 29 29 29 30 31 30 29 30 25 19 25 23 23 20 16 18 18 20

GFSMA_700_spd_087.txt.gz
Wind_Speed
14 11 10 10 7 11 11 9 10 13 15 12 11 14 15 16 17 19 22 24 24 22 22 21 20 18 18 17 17 16 15 15 15 13 13 12 11 9 9 9 10 10 11
13 9 9 8 7 11 11 12 11 11 12 10 10 13 15 16 18 21 22 22 21 20 19 19 18 19 18 18 19 18 19 19 18 17 16 15 13 11 10 9 9 10 10
11 9 9 7 10 13 12 12 12 13 15 13 12 15 16 18 20 21 21 20 19 18 18 18 19 19 19 20 20 20 21 21 21 20 19 16 14 13 11 10 11 10 10
10 11 12 10 11 14 12 10 11 12 15 12 12 17 19 19 20 20 19 18 17 17 16 19 20 19 18 19 19 19 21 22 23 23 23 19 17 15 13 12 11 11 11
8 8 9 9 9 10 12 13 13 10 10 11 12 15 19 19 20 19 18 18 16 15 18 19 19 17 16 16 17 19 20 22 24 25 26 24 19 16 14 14 13 12 11
7 8 11 8 8 11 16 14 11 10 11 9 12 16 18 18 19 19 18 17 16 17 18 18 16 13 13 15 17 19 20 22 23 24 26 26 23 19 16 13 13 13 12
6 7 11 12 10 12 13 12 9 8 13 12 13 15 17 18 18 18 17 17 16 18 18 16 13 13 15 17 19 19 21 22 23 24 25 26 26 23 18 15 14 14 13
7 7 10 7 9 10 10 11 12 9 8 14 14 15 15 17 17 17 16 15 16 17 17 15 14 14 14 15 17 19 21 22 22 23 26 26 25 26 22 18 15 14 15
8 8 9 10 13 6 11 13 13 9 9 9 12 15 15 18 17 17 16 15 15 17 16 16 14 13 12 13 15 17 18 20 21 22 23 24 24 24 25 22 19 16 16
6 10 10 13 11 12 11 13 12 11 13 7 8 13 14 17 18 16 14 13 12 15 14 13 12 11 10 11 13 15 16 17 18 20 22 23 23 24 23 24 21 19 16
6 8 10 10 10 9 12 14 13 13 14 10 9 11 13 16 18 16 14 14 13 13 13 11 9 8 7 7 10 13 14 15 16 18 20 21 22 23 23 23 23 21 18
6 7 9 10 10 10 12 14 12 11 13 14 12 12 11 12 17 17 16 15 13 10 9 9 8 6 4 3 7 9 11 12 14 16 18 20 21 21 21 22 21 21 20
7 5 8 10 12 13 10 13 16 14 14 18 15 15 13 11 13 15 15 14 12 12 11 10 8 6 2 0 4 6 8 10 13 15 16 18 20 20 20 20 21 20 20
7 5 5 7 10 11 10 12 14 17 18 20 20 18 16 12 12 14 14 14 13 12 12 11 10 8 6 4 4 5 8 10 13 15 15 16 19 20 20 20 20 20 20
7 7 6 7 8 8 10 13 14 18 19 23 23 22 21 18 14 16 16 15 15 14 13 12 12 10 9 8 7 6 10 12 14 15 16 16 17 18 20 20 20 20 19
8 10 10 8 8 8 8 10 13 15 18 23 24 22 27 24 21 18 20 18 17 16 16 15 16 14 12 10 9 9 12 16 19 19 19 18 18 17 18 18 19 20 18
12 12 12 11 10 8 8 8 10 14 15 19 23 24 28 30 28 24 22 20 20 19 19 19 18 17 14 10 12 15 15 18 20 21 21 21 20 18 17 17 19 18 18
14 16 14 12 10 7 7 7 7 10 12 16 22 23 23 33 34 33 28 24 24 24 24 25 24 22 22 21 19 21 21 21 23 23 23 23 21 18 16 16 19 20 17
19 17 16 13 10 12 12 11 10 9 8 11 13 15 16 23 30 36 34 31 29 29 31 29 28 28 29 30 29 28 28 26 28 27 26 24 22 20 17 17 18 19 17
20 20 18 15 14 14 14 14 13 12 12 12 13 13 14 15 20 28 31 32 31 31 32 34 32 31 32 32 32 32 31 31 29 28 24 24 22 21 21 20 19 16 16
20 18 18 19 18 17 16 15 16 17 16 15 16 15 13 12 13 23 30 32 33 31 30 29 30 28 26 25 28 30 30 28 25 22 18 19 20 21 24 23 20 19 16
24 22 21 21 18 17 16 16 17 18 19 18 18 18 17 17 16 17 18 19 20 21 21 24 25 25 21 21 22 25 25 24 21 18 20 17 21 21 24 25 22 20 20
28 27 26 23 21 20 19 18 19 20 20 20 19 18 20 21 21 21 21 22 22 22 22 21 20 19 19 18 23 23 25 25 23 21 24 17 19 19 23 23 21 19 18
30 33 28 25 23 23 23 23 22 23 22 21 20 20 21 21 21 22 23 24 24 24 24 24 25 22 23 24 26 28 28 27 25 22 24 24 19 23 20 21 22 20 20
36 33 28 27 24 26 28 25 25 26 25 25 24 23 22 22 21 24 26 27 27 26 25 26 27 26 25 27 28 32 31 31 27 23 25 27 21 27 24 19 21 21 22
19 20 29 28 27 28 28 27 29 29 28 29 27 28 28 28 27 26 30 31 33 30 30 31 33 33 32 31 31 33 33 33 33 32 27 33 28 30 32 25 22 24 25

GFSMA_700_spd_093.txt.gz
Wind_Speed
11 12 11 13 14 12 8 8 9 11 11 12 13 15 17 20 21 20 19 18 16 15 14 13 13 13 14 15 15 15 16 16 14 13 13 12 13 13 12 12 11 10 11
11 12 11 10 11 12 10 11 9 11 11 12 14 17 18 20 20 19 17 15 14 13 13 13 13 14 14 15 16 18 18 17 17 16 15 15 14 15 15 14 12 12 12
7 9 9 9 9 9 9 9 9 10 11 12 15 17 17 17 16 16 14 13 12 13 13 12 13 14 15 15 18 19 20 20 20 19 18 17 16 15 16 16 15 13 11
7 6 10 9 8 9 8 7 9 10 11 13 16 17 17 16 14 12 11 11 11 13 12 12 12 13 14 16 18 19 21 22 23 23 21 19 18 16 16 16 16 14 13
7 8 7 9 8 6 8 10 9 10 11 13 16 17 16 14 12 11 10 10 11 12 11 10 11 12 14 17 18 20 22 24 24 24 23 23 21 20 19 17 17 16 14
7 7 6 7 5 6 8 8 6 8 9 13 15 16 15 13 11 9 9 9 11 11 9 9 11 13 14 15 17 20 21 22 24 25 25 24 25 24 21 19 18 17 15
4 6 8 7 7 7 7 6 5 5 7 11 14 15 14 11 9 8 8 9 9 9 7 9 11 12 12 13 15 17 19 21 23 25 25 25 25 25 24 23 21 19 17
5 6 9 8 5 7 7 4 4 6 5 10 13 14 13 12 9 8 8 9 8 7 5 8 8 8 9 10 13 14 16 19 21 23 24 25 25 25 25 25 23 21 19
7 4 10 9 8 8 8 5 5 5 3 9 13 14 13 12 10 8 6 7 7 5 4 6 6 6 7 9 11 13 15 17 19 21 22 24 25 25 25 25 24 24 21
7 6 8 9 9 8 8 8 6 2 4 7 12 14 14 13 11 8 7 6 7 4 3 3 2 3 4 7 9 11 14 16 18 19 21 22 24 25 25 25 25 24 24
6 7 6 7 11 11 8 9 9 6 6 4 10 12 12 12 12 9 8 7 7 6 5 3 2 2 4 6 8 11 13 15 17 17 19 21 23 25 26 26 25 25 23
4 5 6 7 9 10 11 9 12 11 9 7 8 13 11 13 12 11 9 9 8 7 7 7 6 6 7 8 10 11 12 14 15 17 19 21 23 25 25 25 25 24 24
4 4 7 7 9 9 10 10 14 12 11 11 10 14 12 13 13 12 12 11 10 10 10 10 9 9 11 12 13 15 15 14 15 17 20 22 23 25 26 26 25 24 25
4 4 5 6 8 8 6 6 10 12 10 13 13 17 15 14 14 14 14 13 12 12 13 12 11 11 13 13 14 15 15 16 17 18 20 22 23 25 27 27 27 26 25
7 6 5 6 7 10 9 9 8 11 12 15 15 17 19 16 16 16 16 15 15 14 15 15 14 14 15 15 16 16 15 16 18 20 21 23 24 25 26 27 27 26 26
11 9 8 8 9 9 9 9 10 12 11 12 14 18 20 20 19 19 19 18 18 17 18 18 18 18 18 18 19 19 19 19 20 21 24 25 26 25 24 25 25 25 24
15 13 13 12 10 9 8 8 9 10 10 11 13 16 20 23 24 24 22 23 21 22 22 21 20 21 21 22 22 24 25 26 26 27 27 27 27 25 24 22 22 23 22
15 16 14 10 12 12 11 10 10 9 9 10 12 13 16 21 23 25 27 27 27 27 26 26 26 25 25 26 28 30 29 29 30 29 28 27 26 24 22 21 21 21 21
20 17 15 13 13 11 14 12 11 11 10 9 9 10 12 16 18 21 22 26 30 31 31 31 28 27 27 28 30 30 30 31 30 27 25 25 24 22 22 22 22 21 20
22 21 19 18 17 17 16 17 17 15 13 11 10 10 11 12 13 16 18 20 23 28 32 32 29 27 27 26 29 28 26 28 26 24 24 23 23 22 24 23 23 23 22
21 20 20 22 20 19 18 19 18 18 16 15 13 13 12 13 14 14 16 17 18 18 22 23 24 25 26 25 25 25 26 27 25 22 22 21 23 24 25 26 26 20 21
22 20 18 19 23 23 21 19 18 19 19 18 17 17 17 17 16 17 17 16 17 16 18 21 22 21 20 22 23 25 27 28 27 21 23 19 22 20 24 27 27 24 21
23 22 21 22 23 23 21 20 20 20 19 18 18 17 18 18 19 19 21 21 19 21 21 21 22 21 22 22 25 26 28 30 29 27 26 23 21 22 23 25 27 27 25
22 18 22 25 27 25 25 24 23 23 22 21 20 19 20 20 20 21 22 23 23 23 23 26 26 25 26 26 27 30 30 30 30 29 29 27 25 25 24 25 25 26 26
25 28 27 28 30 29 29 28 27 25 25 25 24 23 24 25 24 25 24 24 24 24 26 26 27 27 28 28 30 33 32 34 33 31 32 32 28 31 28 24 25 26 27
28 30 30 25 29 35 31 32 31 28 27 26 25 25 24 26 25 25 27 29 28 28 28 29 30 30 30 31 32 34 35 36 36 36 34 35 36 34 34 28 27 26 27

GFSMA_700_spd_096.txt.gz
Wind_Speed
11 11 12 13 12 10 7 7 8 9 9 10 12 14 17 18 18 17 16 14 13 13 15 15 16 16 16 16 17 19 19 17 16 16 15 14 14 14 14 12 11 11 11
12 12 12 11 9 8 7 7 6 9 9 11 13 16 17 17 16 16 14 13 13 15 15 16 16 16 16 17 19 22 21 22 21 19 17 15 15 16 14 13 11 10 11
9 9 12 13 10 8 9 7 8 8 10 12 15 16 16 15 14 13 13 12 14 14 14 14 14 14 16 17 20 22 22 23 24 24 21 19 17 16 15 15 13 12 11
8 9 10 13 11 9 9 9 10 8 10 12 16 16 15 14 12 11 11 12 13 13 12 12 13 14 16 18 21 23 24 25 26 26 25 25 22 19 16 16 15 13 13
6 8 8 10 10 9 9 10 8 9 10 11 11 13 13 12 10 9 9 10 11 11 10 11 12 13 15 17 19 22 23 24 25 26 26 26 25 24 21 18 16 15 14
8 7 6 7 9 11 9 8 7 8 10 12 9 10 11 10 9 8 8 9 9 9 8 10 11 13 14 15 17 20 21 22 24 25 25 25 25 25 24 22 19 17 16
5 6 7 6 7 10 9 8 6 7 8 13 9 8 9 8 7 6 8 8 6 6 7 9 10 11 13 13 16 18 19 21 23 23 24 26 26 26 25 25 24 22 20
5 6 7 7 7 10 7 6 5 6 7 11 11 11 5 6 5 5 7 6 5 5 5 6 7 9 11 13 15 16 17 19 20 22 23 25 26 26 26 25 25 24 24
4 3 9 7 7 7 6 5 6 7 4 10 12 12 6 4 5 4 5 5 4 3 3 3 4 6 8 11 14 15 16 18 19 20 21 23 25 26 26 27 26 25 24
6 4 7 8 7 8 6 6 5 4 6 6 11 12 11 10 7 1 3 4 4 3 2 0 2 5 7 10 12 13 15 16 17 19 20 21 23 25 27 28 28 27 26
8 8 6 8 8 10 6 7 7 4 5 7 10 12 11 9 9 7 3 3 4 4 4 3 4 5 7 10 13 14 14 15 17 18 19 21 22 24 26 27 27 28 27
7 8 8 8 8 11 8 9 10 9 7 6 10 12 8 7 5 7 5 4 6 6 6 7 8 8 9 11 12 15 15 14 15 17 21 22 23 25 26 27 27 27 27
6 7 8 9 9 10 9 11 11 12 10 10 9 13 13 12 12 11 8 8 6 8 8 10 11 11 9 11 14 15 17 17 16 17 19 22 24 26 26 26 26 26 27
7 7 8 9 8 8 8 7 10 13 12 11 11 12 17 14 14 14 13 9 5 7 9 11 11 12 14 15 16 17 18 18 19 19 21 23 25 27 28 26 25 25 25
9 7 7 8 8 9 8 8 8 12 12 11 12 14 17 19 17 16 16 15 14 7 8 13 6 16 16 19 19 20 21 21 22 22 24 26 28 28 28 26 24 23 23
10 10 9 8 8 10 10 11 11 10 12 13 14 16 16 22 21 20 19 18 18 17 11 15 11 17 20 21 25 24 25 26 28 27 27 30 29 28 27 24 21 21 21
15 14 12 10 9 8 9 9 10 11 12 13 14 14 17 19 23 23 23 23 23 22 22 16 19 20 24 25 26 27 29 29 29 32 29 30 27 25 25 22 20 20 20
15 16 14 12 13 13 12 12 12 11 11 12 13 14 15 18 20 23 24 27 27 28 29 31 29 29 31 30 31 32 32 31 32 30 28 27 25 23 20 20 21 21 22
18 15 14 15 13 14 14 14 11 10 10 10 10 10 12 13 15 19 21 24 23 27 31 32 34 33 35 31 32 31 31 31 28 26 26 25 21 21 21 21 21 21 21
21 21 19 17 17 17 14 12 12 12 12 13 11 10 11 11 12 12 14 17 19 20 22 25 27 27 28 26 27 26 25 25 25 22 21 22 20 20 20 23 23 22 19
24 20 22 22 21 20 18 16 15 15 14 14 14 13 14 12 11 12 13 14 15 16 16 17 17 17 16 17 19 22 23 23 22 23 23 21 21 21 22 25 25 23 20
24 23 22 21 20 22 20 19 18 18 17 17 17 18 19 16 16 17 16 16 17 16 16 16 16 16 16 18 20 21 23 24 24 21 23 22 21 20 21 22 24 24 24
21 22 24 23 22 19 19 20 19 20 19 18 20 20 19 19 21 20 19 19 18 18 19 20 20 19 20 21 22 22 24 24 26 24 24 25 21 22 22 23 24 25 26
27 24 24 22 19 19 20 22 22 22 22 22 21 21 21 22 21 21 20 21 21 20 22 22 23 21 22 22 24 25 25 26 27 27 25 27 24 22 23 25 25 25 27
24 29 26 20 20 19 23 26 27 26 26 25 26 24 24 24 23 23 24 23 23 24 25 25 25 25 25 26 27 29 28 29 29 29 27 27 27 27 26 25 27 26 22
18 28 28 28 27 22 18 25 29 29 28 28 27 26 26 25 26 26 26 25 26 26 28 28 29 29 28 27 28 31 31 32 32 31 26 28 29 29 29 26 27 27 26

GFSMA_700_spd_102.txt.gz
Wind_Speed
10 4 9 8 17 14 12 11 19 24 17 19 22 20 20 21 20 18 18 19 20 21 20 22 23 24 25 25 25 25 25 24 23 21 19 18 17 17 19 17 16 15 14
9 11 10 10 8 13 20 20 26 21 18 19 22 21 19 16 19 18 19 19 20 20 20 22 24 25 25 26 27 27 27 25 25 24 23 21 19 18 18 18 17 16 15
9 10 14 11 13 13 18 25 21 16 14 17 17 19 17 16 13 17 19 18 18 19 19 21 22 24 24 25 26 26 26 26 26 26 25 24 24 23 21 18 18 17 16
6 9 7 6 8 16 18 14 17 17 15 16 15 16 15 13 13 16 15 16 16 18 18 19 21 22 22 23 24 25 25 25 25 26 26 27 27 26 24 22 21 18 17
9 11 6 9 15 13 14 9 14 16 16 6 12 7 12 11 15 15 11 15 14 15 16 14 18 19 20 21 21 22 22 23 24 25 26 27 27 27 26 25 23 22 20
8 10 11 10 12 7 14 11 13 19 8 17 10 2 9 10 12 10 11 14 9 12 14 8 14 17 18 19 19 20 21 22 23 24 24 25 26 26 26 26 25 23 22
6 9 10 9 6 16 12 20 18 22 20 15 11 9 7 10 8 8 8 10 5 11 7 9 13 13 13 17 18 18 20 20 21 22 23 24 25 25 24 24 24 24 23
7 6 9 12 9 11 7 9 17 20 18 17 12 8 10 10 8 4 6 3 3 6 6 10 9 10 10 13 15 17 18 19 20 22 23 24 26 26 25 23 22 23 23
5 10 9 11 10 9 12 14 15 16 21 14 17 12 10 8 1 1 2 4 0 2 5 3 6 7 9 8 12 14 17 19 20 21 23 24 26 28 28 25 23 21 21
6 8 9 10 11 5 12 15 18 16 15 17 15 17 12 13 11 2 4 2 3 1 4 6 10 6 9 11 10 12 15 18 20 21 23 24 26 28 28 26 23 21 20
5 6 10 10 11 10 8 9 11 16 18 18 15 12 13 13 8 7 5 5 4 3 4 3 7 11 14 14 12 13 14 17 20 22 25 26 27 29 29 25 22 20 19
8 7 6 8 9 14 10 7 7 10 17 18 17 16 17 18 17 11 9 7 4 6 11 8 8 5 10 13 11 15 15 17 20 23 25 27 28 28 27 23 21 18 19
4 5 5 7 9 10 11 9 11 8 9 15 17 18 6 3 18 14 7 14 12 13 13 16 16 14 15 14 11 14 16 18 21 24 26 26 27 26 24 21 18 16 17
16 10 6 8 9 11 12 12 10 11 13 13 12 17 12 8 2 9 18 21 5 17 14 18 20 22 26 15 8 12 25 23 24 28 30 29 27 24 21 19 16 16 16
9 10 9 7 10 11 9 10 10 14 14 14 12 13 15 15 17 15 15 19 16 17 21 18 16 28 19 9 14 18 26 27 27 29 30 28 24 20 18 16 15 15 15
11 19 8 5 8 9 8 8 8 9 9 10 12 14 13 16 19 17 17 17 14 16 19 13 14 17 16 11 19 22 32 29 28 28 25 23 17 16 16 14 14 14 15
9 9 7 7 8 6 6 8 9 8 8 8 10 13 12 12 16 19 20 17 14 18 16 19 16 22 25 27 31 35 32 28 22 21 20 16 15 15 15 14 12 12 13
17 13 13 12 11 9 8 7 7 7 7 8 9 11 10 12 12 15 18 19 26 24 23 24 23 25 24 20 22 23 17 20 17 15 19 20 14 13 14 14 12 12 11
17 18 14 15 14 11 11 10 9 10 9 8 8 8 8 10 9 10 12 14 17 21 23 21 18 18 16 14 12 10 10 13 21 10 13 15 15 14 13 11 9 10 11
19 19 17 15 13 15 14 10 11 11 11 11 9 9 8 9 10 10 10 11 13 12 14 16 17 9 4 13 16 18 10 16 20 14 15 18 19 19 16 15 12 7 8
30 24 24 21 21 16 14 13 12 15 12 13 13 13 12 12 11 11 12 11 12 11 13 14 13 13 14 12 11 14 15 16 14 15 17 17 19 19 16 11 14 17 17
35 36 31 28 22 16 17 15 16 16 14 14 15 16 16 17 15 15 15 15 16 15 15 16 16 16 15 16 16 16 18 18 16 13 19 19 17 14 13 15 21 26 20
19 26 29 25 24 19 16 16 15 15 16 17 18 19 16 18 16 15 15 16 16 17 17 17 16 16 16 18 19 18 18 19 19 18 20 20 15 12 12 18 17 22 19
17 20 17 17 21 22 20 17 17 17 17 18 18 18 20 17 19 17 17 18 18 18 19 19 19 17 18 19 20 22 22 21 19 18 20 20 20 17 16 15 17 18 18
13 21 16 15 17 21 20 18 19 21 19 18 20 21 21 21 21 22 23 23 22 21 21 20 21 20 18 18 20 22 21 23 22 20 18 22 24 24 20 17 15 15 18
6 13 18 19 20 26 27 25 21 18 16 19 20 23 24 23 23 24 25 25 26 25 23 21 20 18 19 18 19 22 22 21 23 22 21 27 24 26 27 20 20 24 25

GFSMA_700_spd_105.txt.gz
Wind_Speed
11 15 18 14 15 16 22 21 21 18 19 21 22 22 22 21 21 21 21 21 22 24 25 26 26 26 26 26 25 24 24 25 25 23 22 20 18 17 17 17 15 13 12
10 11 12 14 23 21 22 23 27 23 21 20 21 20 18 18 21 22 20 21 22 23 24 25 25 25 26 26 25 26 26 26 26 26 24 23 22 21 19 18 16 13 13
13 15 18 24 19 23 24 18 21 22 19 21 19 19 17 16 16 20 19 20 22 22 22 23 23 23 24 23 24 24 25 26 26 25 25 24 24 22 20 19 18 15 14
10 13 11 17 17 20 19 18 23 21 20 16 16 17 18 17 14 16 17 17 20 20 18 21 20 22 21 22 22 22 23 24 24 24 24 24 23 22 22 21 18 16 15
13 13 14 19 19 21 19 22 16 13 16 13 15 13 13 15 14 18 14 15 16 17 17 16 18 19 20 20 20 21 22 23 23 24 25 25 25 24 22 21 20 18 16
10 9 13 16 11 15 15 17 19 17 11 6 10 10 11 12 13 14 11 16 13 12 15 13 15 15 18 18 19 20 20 21 22 23 24 25 26 25 23 22 20 19 18
6 9 11 8 16 17 19 17 17 13 17 12 8 13 14 12 10 10 10 12 10 10 13 12 12 12 12 15 16 17 19 19 20 20 22 23 25 26 25 21 20 20 20
7 9 6 12 14 14 16 18 19 19 16 15 13 14 11 10 11 8 7 8 8 7 8 8 8 9 9 12 14 16 17 18 19 20 21 23 25 26 25 22 20 18 19
5 4 5 5 8 9 15 17 21 20 17 14 12 11 8 4 8 6 3 3 4 4 4 2 7 10 10 8 12 14 16 17 19 21 23 25 26 26 25 21 19 17 18
4 7 6 10 8 9 14 17 19 20 19 15 14 11 9 9 7 3 8 5 6 5 11 9 3 3 6 4 1 7 15 16 19 22 24 25 25 26 23 19 17 15 16
5 8 11 9 11 5 10 14 14 17 18 16 16 17 12 14 10 9 7 6 6 4 9 7 8 11 10 15 5 5 8 11 19 23 24 26 26 24 21 17 15 13 14
5 5 8 8 5 8 7 9 12 12 15 16 16 17 17 14 10 10 8 11 8 9 11 10 15 16 14 19 9 8 10 14 16 24 25 26 24 20 18 16 13 12 13
7 8 9 10 9 7 8 11 10 10 16 16 16 14 17 17 17 14 7 6 12 11 12 14 15 15 21 27 18 15 13 17 20 26 27 27 23 17 16 14 13 14 14
6 9 5 8 9 10 11 12 7 13 13 16 20 19 14 15 18 23 10 5 11 21 17 12 15 15 19 26 12 12 16 25 25 28 25 22 20 14 13 12 13 14 14
5 7 4 5 9 10 9 10 13 15 13 15 15 17 18 18 15 17 15 10 10 13 14 12 14 14 18 13 5 15 20 29 27 22 13 14 14 11 11 11 12 12 13
7 8 8 7 7 8 7 8 10 9 7 14 17 15 17 17 17 20 19 19 22 23 21 17 15 14 16 17 20 23 22 19 11 11 13 12 12 11 10 10 10 11 11
8 5 4 6 6 6 5 6 8 8 6 9 11 12 11 13 13 20 22 20 22 21 19 18 17 20 20 21 23 18 8 9 10 12 10 13 13 9 10 8 8 7 8
11 11 10 10 10 8 6 6 7 7 5 5 7 9 9 10 12 15 18 21 18 21 26 23 23 22 21 16 16 17 14 4 9 18 15 15 16 12 11 10 10 7 5
13 11 14 12 11 12 10 11 11 12 9 8 9 7 8 8 7 8 9 10 13 16 21 22 20 18 14 16 11 12 13 9 14 16 14 14 13 13 13 11 9 8 8
19 16 13 15 15 15 13 11 10 12 12 12 10 9 9 9 7 7 7 8 7 8 9 9 9 9 9 9 11 12 11 13 15 13 12 14 15 14 10 8 6 6 10
26 22 20 20 21 21 13 11 13 13 12 8 10 10 10 11 12 11 10 10 10 9 10 11 11 10 11 11 11 12 14 13 11 15 14 13 13 11 10 8 9 12 7
13 22 29 27 28 26 18 14 14 15 14 13 12 12 13 12 12 13 13 13 12 11 11 12 12 13 12 14 13 14 14 13 10 12 15 12 14 13 12 9 8 10 14
14 17 15 23 29 32 25 15 14 16 15 15 15 15 16 14 13 12 11 13 13 13 12 12 11 11 10 14 15 15 15 17 17 15 17 14 13 11 13 11 12 14 11
15 11 11 13 16 20 28 31 20 17 18 15 16 16 17 17 16 16 16 14 15 15 14 15 14 14 14 15 17 17 16 15 15 15 17 16 16 15 15 13 13 14 13
14 11 9 7 9 10 13 17 19 19 18 18 18 15 14 16 18 19 20 19 19 19 19 19 18 18 18 16 18 17 17 17 15 15 18 20 20 21 18 17 18 18 18
13 8 6 11 11 12 16 19 23 23 20 19 17 17 17 19 20 21 22 21 20 23 23 22 21 20 20 20 20 20 22 24 28 28 26 28 26 25 23 19 18 20 20

GFSMA_700_spd_108.txt.gz
Wind_Speed
16 21 20 16 18 20 16 15 12 18 22 22 20 20 19 22 19 19 20 21 23 24 24 23 24 24 24 25 24 24 24 23 23 22 21 19 16 15 14 12 11 10 10
14 17 15 16 24 25 25 22 19 21 22 21 19 19 17 19 20 20 21 21 22 23 23 23 23 23 24 24 24 24 24 23 24 24 23 22 21 19 16 14 11 9 9
13 17 20 23 23 25 24 23 23 22 19 18 17 16 15 14 16 19 20 21 20 21 22 21 21 22 22 22 22 22 22 22 23 23 23 23 22 21 19 17 15 13 11
16 20 19 12 24 20 24 21 21 20 20 19 16 15 15 13 13 16 17 18 19 18 18 19 20 20 20 20 21 21 21 21 21 22 23 23 23 22 21 19 17 15 12
9 12 12 11 13 17 15 20 18 19 18 19 17 15 14 14 11 14 14 16 16 16 16 15 17 19 19 19 20 20 21 21 21 21 22 23 23 24 23 20 18 17 16
6 12 18 18 17 16 19 12 11 13 15 16 13 12 13 15 13 14 14 13 13 12 13 13 14 15 15 16 17 17 18 19 20 21 22 23 23 23 23 21 18 17 17
9 12 13 13 15 15 17 18 15 10 13 12 13 14 13 13 11 9 15 11 13 11 14 11 11 12 12 13 13 13 13 14 18 21 23 24 23 23 22 20 19 16 17
8 8 9 13 10 16 18 19 17 11 12 11 13 11 11 10 10 9 7 8 9 8 9 9 6 6 4 6 7 9 10 11 13 16 23 26 23 24 22 18 18 16 16
9 11 9 8 11 15 18 19 13 17 14 11 11 11 10 10 8 9 7 5 5 5 5 2 1 1 5 8 11 10 12 13 15 17 20 26 26 25 21 17 15 14 15
7 11 11 11 11 11 14 15 16 18 16 13 11 11 9 7 7 7 7 3 4 4 3 4 7 7 10 14 16 19 14 15 17 18 21 23 28 24 19 16 14 13 15
7 9 12 11 7 9 11 15 13 22 18 16 14 12 11 11 8 8 7 6 7 7 7 6 7 7 7 12 22 16 14 14 19 21 21 23 24 21 17 15 13 14 15
6 7 9 12 12 9 11 12 16 15 18 19 15 15 15 15 12 11 13 12 11 8 11 11 11 13 15 16 14 12 20 15 19 24 20 20 21 18 14 13 12 13 15
5 5 6 10 13 12 12 14 14 16 17 19 17 19 18 18 16 14 12 9 14 15 17 14 14 15 16 17 14 18 8 16 23 24 16 15 17 16 13 11 12 12 13
5 6 6 6 9 11 12 14 14 14 15 16 18 16 17 19 21 23 24 23 18 15 21 21 17 15 16 15 16 12 13 17 23 18 10 11 11 14 12 10 11 11 11
10 6 10 8 9 11 10 14 16 15 15 15 15 18 22 22 18 15 16 24 17 13 9 13 15 16 17 11 13 13 19 21 17 7 8 8 5 9 11 9 9 10 9
9 7 9 10 10 10 10 13 14 15 13 16 20 18 19 20 24 23 21 22 24 21 19 19 22 20 17 18 22 25 22 15 7 11 15 16 10 9 9 8 8 9 8
10 9 9 14 10 7 7 10 11 11 12 13 18 18 19 18 19 20 20 20 22 22 23 21 22 21 18 21 22 21 16 15 8 12 15 10 10 10 11 10 10 10 9
13 11 9 9 8 8 9 9 9 10 11 10 12 12 14 17 18 19 19 20 21 22 22 20 21 25 22 21 18 12 10 8 3 15 14 13 11 11 11 10 11 10 8
11 10 12 14 15 12 14 12 12 11 11 12 12 12 12 12 12 14 16 16 17 17 17 16 16 18 19 15 10 4 11 11 10 10 12 14 15 15 15 13 8 7 8
15 15 14 15 15 13 14 14 15 16 14 13 14 12 11 10 10 10 11 12 12 13 13 12 11 11 12 11 11 10 11 12 12 12 12 14 14 16 16 13 10 9 9
16 19 21 20 18 18 17 14 17 17 13 13 20 18 13 13 13 15 12 13 12 12 14 13 13 13 13 13 13 13 13 11 13 16 12 16 13 15 12 12 12 13 14
17 17 17 24 24 21 24 23 18 20 15 14 13 14 13 12 11 12 13 15 15 14 13 12 12 12 13 15 14 15 16 14 12 18 14 15 16 14 12 10 16 18 16
14 14 13 14 21 24 23 25 26 19 17 14 14 14 14 14 15 14 14 13 14 14 12 13 14 14 14 17 16 15 17 17 16 15 16 14 16 15 14 14 16 17 17
12 12 13 13 16 18 20 20 24 19 12 14 16 15 15 16 17 17 17 17 16 16 16 16 17 17 18 19 18 18 17 14 13 13 15 14 14 14 14 17 18 19 19
10 11 10 12 13 14 14 14 20 24 22 20 20 19 18 16 16 18 19 20 21 22 21 21 20 20 21 20 19 18 18 18 17 21 22 22 25 23 19 17 19 19 20
15 12 12 11 13 11 11 12 13 16 20 23 21 19 18 17 18 19 21 24 24 23 22 25 26 26 24 23 21 21 22 23 25 29 30 30 26 23 24 25 21 19 18

GFSMA_700_spd_111.txt.gz
Wind_Speed
14 18 15 11 15 16 15 13 16 19 20 19 19 18 20 21 21 21 22 21 22 22 23 23 22 23 23 22 22 23 22 22 22 21 20 18 16 15 13 12 11 11 10
18 14 14 17 15 16 14 16 18 18 18 18 18 18 17 20 21 21 21 20 20 21 22 22 21 21 21 21 21 22 22 23 23 22 22 21 20 19 18 16 14 13 11
15 10 12 18 18 19 18 19 20 19 18 19 18 17 17 16 17 18 20 19 18 19 20 20 20 19 19 19 19 19 20 21 22 23 24 24 24 22 20 18 16 13 13
14 13 17 16 17 21 20 21 20 18 18 19 17 18 17 16 15 15 16 17 16 17 16 17 17 17 17 18 18 17 17 17 18 20 23 25 25 25 23 21 18 16 14
15 16 13 20 15 17 20 21 21 18 17 17 16 15 17 14 15 15 15 14 14 15 14 14 14 13 14 13 12 12 13 15 17 19 20 22 24 26 25 21 18 17 16
11 11 15 17 19 16 20 16 17 16 15 15 15 15 14 14 13 14 12 12 12 11 12 11 10 9 9 11 13 13 13 15 17 20 22 23 23 26 25 22 19 16 16
11 12 17 18 15 15 18 14 14 14 13 12 13 14 15 14 12 9 11 13 13 12 9 6 5 6 8 12 14 16 17 19 19 20 23 24 24 25 26 22 19 17 16
9 11 11 8 10 13 12 14 13 12 10 12 12 13 14 13 10 9 8 8 9 7 5 4 3 5 8 12 15 17 20 22 20 22 24 25 26 25 22 21 18 16 16
12 11 12 11 14 16 19 14 15 12 10 12 13 11 12 11 10 10 11 9 7 5 5 2 4 6 7 10 15 17 20 20 23 22 25 24 25 25 22 20 17 15 16
10 12 14 13 11 13 17 18 14 11 14 12 11 10 11 10 9 10 9 7 8 7 6 4 6 6 10 12 19 22 19 12 19 21 26 25 21 22 19 18 16 15 16
9 13 13 12 11 10 13 17 17 14 14 15 14 12 12 12 10 9 9 9 9 8 9 8 8 8 8 15 21 19 8 15 23 22 28 24 19 16 16 16 15 15 15
7 10 11 13 11 11 14 15 16 15 19 18 19 16 15 13 13 12 13 14 15 15 14 13 11 12 14 17 20 17 18 22 17 24 28 19 15 14 13 13 15 14 14
6 7 11 14 13 11 10 10 15 18 17 18 21 19 18 16 15 14 14 15 14 12 17 21 16 12 18 16 17 17 17 18 21 26 26 16 14 13 11 12 13 13 12
10 9 10 12 12 11 11 13 15 15 16 19 20 22 19 20 18 20 20 20 22 25 21 17 21 22 16 14 19 16 12 19 26 32 26 18 17 17 12 11 12 13 12
11 7 11 12 11 13 13 15 16 15 15 16 16 21 21 21 21 19 20 18 17 19 17 15 15 16 18 18 19 20 19 23 27 22 14 17 12 12 18 15 14 14 14
8 10 9 12 11 12 13 15 16 17 18 17 19 18 19 19 20 24 25 26 27 26 26 26 20 20 23 21 20 19 22 15 15 14 12 16 9 12 14 14 14 13 13
11 11 11 12 12 10 10 11 14 17 17 18 19 20 20 20 22 23 22 23 24 21 21 20 19 21 20 22 21 20 17 11 14 9 13 13 12 14 15 15 17 17 14
14 13 11 8 13 12 10 10 11 14 15 15 15 14 15 17 20 22 21 23 21 21 21 20 21 21 22 21 17 15 11 11 12 13 17 12 13 12 15 18 19 18 13
15 16 17 16 15 15 12 12 11 12 14 15 15 14 15 16 17 17 19 21 21 20 19 18 16 16 16 14 13 11 10 12 12 14 15 16 17 17 17 17 16 13 12
18 16 16 15 15 17 16 15 16 16 16 16 18 17 15 15 15 14 16 16 14 14 15 15 14 13 12 12 11 11 12 15 14 14 14 16 16 17 18 16 15 15 15
20 17 15 16 18 18 19 18 17 18 17 16 16 21 21 19 19 19 18 17 18 17 16 16 16 16 16 16 16 15 14 12 14 15 14 16 16 17 17 18 17 15 15
23 19 17 18 20 24 24 22 21 19 19 17 17 12 11 21 18 17 13 13 19 19 18 16 15 16 18 18 17 17 16 14 13 17 14 17 16 15 16 16 17 16 20
10 9 11 15 18 21 27 25 23 24 23 22 22 19 15 16 16 15 16 17 17 17 16 18 18 17 18 18 17 17 19 18 17 16 11 10 11 12 15 17 19 20 21
10 11 12 14 13 17 20 26 30 28 28 18 17 15 13 17 18 18 20 19 20 20 21 19 18 20 21 20 19 19 19 18 18 17 15 17 16 17 20 22 21 21 22
11 10 13 13 12 13 14 19 22 21 22 18 16 16 17 20 20 19 18 19 20 22 23 24 24 23 24 24 24 23 21 20 20 21 23 23 24 24 25 23 24 25 24
16 16 13 13 11 11 11 9 9 12 17 22 23 21 22 20 20 20 20 21 22 24 24 24 22 22 23 25 27 25 23 23 23 25 28 28 27 23 21 22 23 22 23

GFSMA_700_spd_114.txt.gz
Wind_Speed
9 13 10 13 10 15 16 17 19 19 18 18 18 18 19 20 21 21 22 22 22 22 22 22 21 21 21 20 20 19 21 21 21 20 21 21 20 18 16 14 12 12 12
16 12 14 15 17 16 18 18 19 17 16 17 18 17 17 19 21 21 21 20 20 20 20 20 19 18 18 17 17 17 18 19 19 19 20 20 20 19 18 16 14 13 13
10 12 12 14 16 14 16 19 19 17 15 17 18 18 17 17 17 19 19 18 16 17 17 17 17 16 15 14 15 16 17 18 19 19 20 20 19 20 19 17 15 12 12
9 14 15 13 16 16 18 19 18 16 16 17 17 18 16 17 17 14 15 16 15 15 14 13 12 13 13 15 15 16 17 18 20 22 23 22 22 22 20 18 17 15 13
13 16 14 13 18 19 19 18 18 16 15 16 17 16 15 15 16 14 13 13 13 13 11 11 10 12 13 15 17 19 20 21 23 25 26 26 26 25 22 18 17 15 15
16 10 13 14 15 17 17 17 17 15 14 15 16 13 12 13 14 13 11 11 10 9 9 9 8 11 13 15 16 18 19 20 22 25 27 29 28 27 23 19 16 15 16
14 12 11 18 12 13 16 14 14 13 11 11 12 12 11 10 9 8 8 8 9 7 5 5 6 9 10 10 13 14 14 16 17 22 28 31 30 28 23 20 17 15 16
10 13 13 14 15 13 17 14 13 12 10 10 11 11 10 9 7 5 4 3 3 1 1 2 4 6 7 9 13 15 21 14 16 19 24 33 31 28 21 19 16 15 16
9 12 15 13 13 13 14 13 11 13 10 10 11 11 11 10 9 7 5 6 6 6 5 4 7 6 7 9 11 16 19 13 19 21 25 29 32 27 20 18 16 16 16
7 7 11 11 9 10 12 14 10 14 13 10 10 11 11 11 10 10 9 11 10 9 9 7 7 7 8 10 13 18 16 17 23 24 24 30 29 25 19 16 16 15 15
9 10 9 9 8 10 12 14 15 12 12 14 12 11 11 11 11 10 10 11 11 8 7 10 9 13 14 16 21 19 17 20 24 21 24 32 31 24 19 15 16 16 14
9 11 12 13 12 12 11 13 17 17 16 15 16 16 15 14 13 14 15 14 14 14 16 13 15 16 16 16 19 18 20 20 22 22 26 33 27 23 18 16 15 15 15
10 11 13 13 14 12 9 11 15 17 16 16 18 18 18 17 16 15 16 16 15 16 15 19 19 16 19 19 18 16 18 18 18 23 27 26 19 17 14 16 15 15 14
13 12 13 15 14 13 13 11 12 13 16 18 17 18 20 22 19 19 17 18 18 19 20 20 14 13 14 16 17 19 19 20 23 26 24 16 21 12 13 17 15 15 15
13 13 13 14 15 15 14 15 13 13 15 16 17 17 19 23 21 21 21 21 18 19 18 20 22 23 24 23 23 22 23 23 23 20 16 14 16 12 17 16 16 16 15
13 15 11 15 15 14 15 15 15 14 17 19 19 18 18 18 19 20 20 20 22 22 23 21 20 23 23 22 21 17 19 21 20 18 13 10 16 14 15 16 18 19 18
14 12 13 14 15 14 15 15 17 17 18 20 21 21 19 20 21 21 20 19 20 20 21 20 19 19 20 20 18 18 16 16 14 15 10 13 15 15 16 17 19 17 15
16 14 15 15 14 20 15 13 14 16 16 17 18 18 18 17 16 17 17 18 18 18 17 15 14 14 14 15 14 13 14 12 11 14 14 15 13 14 15 16 15 15 14
18 17 17 17 14 12 13 13 13 13 13 15 16 17 15 15 15 15 16 16 16 15 15 14 12 12 12 12 11 11 9 10 13 13 15 16 17 17 15 16 16 16 13
20 19 19 18 16 17 17 17 17 17 16 15 16 16 16 16 16 16 14 15 15 16 14 16 14 14 14 14 13 12 13 13 13 13 16 16 16 18 18 18 17 17 17
21 19 19 18 17 16 16 18 19 17 18 17 18 18 19 19 18 18 18 20 20 23 24 17 19 19 18 16 15 15 13 12 13 13 16 16 18 20 20 20 19 18 18
25 26 24 22 19 17 19 24 22 21 19 17 18 19 17 16 18 21 21 18 17 18 19 21 21 20 18 19 18 17 15 15 14 12 13 14 13 15 16 18 19 21 22
10 18 23 25 19 14 19 21 25 25 25 26 22 21 20 18 20 16 14 16 20 20 19 18 18 18 19 19 19 19 19 18 18 15 13 11 10 16 19 21 22 24 25
10 10 4 9 12 14 15 19 22 28 28 28 24 23 23 22 19 15 13 18 21 23 21 20 21 21 20 21 20 21 21 21 19 18 16 17 17 19 23 26 27 27 26
14 13 11 10 10 11 12 13 16 21 23 18 21 21 20 17 16 12 16 20 23 22 22 22 23 24 24 23 23 23 24 24 23 21 20 21 22 23 26 25 25 24 24
13 14 13 10 12 11 9 9 10 11 10 10 14 17 18 19 18 18 20 22 22 23 23 24 25 25 23 21 20 17 20 22 22 24 25 27 28 26 23 24 22 22 23

GFSMA_700_spd_117.txt.gz
Wind_Speed
8 9 10 12 11 15 16 17 16 13 12 13 13 12 15 18 18 21 20 20 20 21 20 19 18 17 18 18 18 18 19 19 20 20 20 19 19 17 15 14 14 13 12
10 8 12 12 15 16 17 18 16 13 12 12 12 13 14 16 18 19 19 18 18 18 17 16 15 15 16 16 17 18 19 20 22 22 22 21 21 18 15 14 13 14 14
8 10 13 15 14 16 18 18 15 13 12 11 12 14 14 14 15 16 16 16 16 15 14 13 14 15 16 17 18 18 18 19 21 23 25 26 25 23 18 14 14 12 14
7 9 11 14 13 15 16 15 13 13 12 11 12 14 14 13 13 13 13 12 12 12 12 12 13 15 16 16 16 15 15 16 19 21 25 29 29 28 22 16 13 12 13
9 11 10 13 15 15 16 14 12 12 12 11 11 13 12 11 11 10 10 9 9 9 10 11 11 12 12 12 12 13 15 16 17 19 22 28 32 29 24 18 14 13 13
13 11 10 15 15 15 15 13 12 11 10 10 9 10 10 10 9 8 7 6 5 5 6 7 8 7 7 8 10 14 17 18 19 21 23 28 34 31 23 18 14 13 14
10 8 12 14 12 14 14 12 12 11 11 10 8 8 9 8 6 3 2 1 1 0 2 3 4 4 8 9 11 15 20 21 17 20 25 28 33 31 23 18 14 14 15
11 10 11 13 10 11 12 12 12 11 11 10 9 8 8 8 6 4 2 2 3 4 3 3 6 9 10 13 15 17 21 18 19 24 23 27 33 30 23 17 15 15 15
8 10 11 13 14 10 12 12 13 11 10 9 9 9 9 7 6 5 5 5 6 7 8 9 10 12 11 13 14 17 22 19 21 23 19 24 32 28 23 17 16 16 16
9 11 12 13 13 12 13 14 13 12 11 10 9 10 12 10 10 10 10 10 10 10 11 11 12 14 14 16 19 19 21 21 21 18 20 24 28 27 21 17 16 16 16
9 10 10 16 11 13 15 15 16 12 13 12 12 12 12 12 12 11 11 10 11 11 11 11 14 16 16 17 18 19 18 20 20 15 20 24 25 22 19 16 16 16 16
8 10 11 13 12 9 11 11 15 15 15 14 15 17 15 14 14 15 15 14 13 13 13 14 13 17 19 18 20 21 19 23 23 23 24 24 19 21 14 17 15 14 16
9 9 11 11 11 11 9 11 13 15 18 17 16 17 17 18 18 17 17 17 16 16 16 17 19 19 15 14 16 19 21 22 23 23 20 15 17 16 14 16 15 15 15
13 13 13 13 13 14 13 12 12 13 14 17 17 16 16 17 18 20 19 19 18 18 18 14 16 18 20 20 21 24 24 24 22 20 16 13 13 14 15 14 14 15 16
13 14 14 15 15 17 16 16 15 14 15 15 14 15 17 17 18 20 19 19 20 20 19 20 22 22 23 23 24 24 23 20 20 17 15 14 11 15 15 15 15 16 15
16 15 14 14 16 17 17 16 15 16 16 16 17 17 18 17 18 18 18 18 16 17 17 16 17 19 20 21 20 20 17 17 16 13 13 10 13 16 15 15 16 15 14
16 16 17 17 15 17 16 15 16 16 16 17 18 19 19 19 18 18 20 19 18 16 16 15 15 17 17 17 16 14 13 12 11 9 11 11 12 13 14 14 14 15 16
19 19 18 16 15 16 18 17 16 16 16 16 16 18 15 15 14 14 13 14 14 14 14 12 13 13 13 12 11 9 9 8 10 12 12 13 12 12 11 10 11 11 13
22 22 21 19 18 17 17 18 17 16 15 14 14 14 15 14 13 14 13 13 13 13 12 12 11 12 12 11 10 9 10 11 13 14 13 14 15 14 13 12 12 12 13
24 25 24 24 21 20 19 18 19 18 18 19 17 15 16 15 16 16 16 15 14 12 14 15 16 17 16 15 13 12 11 12 13 14 15 16 17 17 16 15 14 13 13
25 29 29 27 25 23 20 20 21 21 21 20 21 20 20 20 20 19 20 18 18 18 18 17 16 15 15 14 13 13 13 12 11 12 14 18 18 17 15 15 16 17 17
29 28 30 29 25 22 21 20 19 21 22 23 21 21 21 21 22 19 21 22 20 16 16 17 16 16 16 16 15 15 15 15 15 14 15 16 17 16 14 15 17 18 20
36 30 31 31 34 27 23 18 20 23 24 27 25 23 21 21 22 21 19 19 15 12 14 18 20 19 19 17 17 17 18 18 17 16 17 15 17 19 19 19 21 23 24
24 25 22 23 11 27 16 17 21 22 21 24 25 23 25 25 24 26 26 23 18 14 15 21 22 22 22 20 20 21 22 23 22 20 18 19 19 22 25 24 25 26 26
18 17 13 10 8 6 6 13 16 17 18 21 24 25 26 26 19 18 16 16 17 18 19 23 23 21 22 23 24 23 22 21 23 24 23 22 21 23 26 27 25 23 23
20 19 16 12 12 11 11 12 12 13 14 15 16 18 18 16 16 18 15 17 20 22 23 23 22 21 21 20 18 16 15 16 16 18 18 20 21 20 20 20 21 20 21

GFSMA_700_spd_123.txt.gz
Wind_Speed
11 11 10 11 13 10 8 9 9 10 12 12 11 11 12 12 14 14 15 16 16 16 15 14 14 12 12 12 13 14 16 17 18 19 22 22 20 17 15 12 11 11 9
9 9 8 8 9 13 8 8 12 12 6 11 11 12 13 13 13 14 14 13 13 13 12 11 10 10 10 11 13 16 18 18 18 19 23 24 22 20 18 16 12 11 10
9 10 9 9 10 12 12 13 12 15 7 10 10 11 11 11 10 11 12 12 10 10 9 8 8 9 10 12 14 16 18 19 17 18 21 25 23 20 18 16 12 11 11
9 10 9 7 12 13 9 7 10 9 6 6 8 8 9 9 8 8 9 8 7 8 6 6 7 9 11 12 13 17 23 23 18 21 18 24 24 21 19 16 13 12 13
8 12 10 11 15 9 8 5 9 8 9 4 5 5 6 6 6 4 5 5 5 3 2 5 7 9 11 13 16 18 20 23 19 21 18 21 24 22 18 17 15 14 15
9 11 12 14 15 9 8 11 13 13 8 9 3 4 4 4 3 3 2 2 2 1 4 6 8 11 13 16 18 19 19 22 22 22 20 20 23 22 17 16 16 15 16
11 10 10 13 14 18 20 15 10 9 4 11 13 4 6 6 6 4 2 2 9 3 6 8 9 11 18 17 16 20 21 21 21 21 18 18 20 20 16 15 15 15 17
10 10 16 13 9 10 12 12 19 15 4 6 10 10 9 6 7 7 5 4 3 5 5 10 14 15 13 18 20 19 20 18 19 20 18 19 19 17 15 14 14 13 16
8 9 13 16 16 14 6 10 10 8 16 8 9 13 6 15 8 7 8 5 7 7 5 10 15 15 14 17 20 22 20 19 18 20 21 22 18 16 12 14 13 13 14
9 12 14 16 14 15 13 10 10 9 7 5 12 11 15 12 7 17 7 17 2 9 10 10 6 20 20 16 21 21 19 18 18 19 21 19 16 15 12 12 12 11 12
8 9 15 17 16 13 12 12 11 13 10 12 10 8 14 14 15 17 14 24 15 20 6 11 10 14 18 18 18 15 16 19 22 22 18 14 11 11 10 14 14 13 12
9 9 12 14 15 13 12 13 16 15 17 15 16 13 8 12 11 7 10 11 22 12 8 18 16 12 14 14 19 20 21 23 23 21 18 12 9 8 9 10 10 10 11
4 9 12 12 13 16 12 14 15 18 18 20 18 18 12 11 14 13 13 12 14 12 16 5 24 13 19 14 15 22 22 21 19 18 15 12 10 8 10 11 11 11 10
16 18 13 13 13 13 15 15 14 15 18 20 20 20 20 14 13 12 13 15 14 11 17 17 21 17 14 20 20 15 11 20 20 15 13 11 11 8 12 11 11 12 11
13 12 12 12 12 13 14 13 14 13 15 14 17 18 19 18 10 16 13 13 13 14 11 14 14 21 18 19 23 18 20 14 14 12 10 9 8 9 10 10 10 11 10
15 14 15 14 13 13 13 14 15 16 15 15 15 18 16 16 14 14 12 12 14 14 14 13 11 20 25 18 18 13 12 11 8 10 7 8 8 9 10 10 9 9 7
15 15 15 14 14 14 14 14 16 16 15 14 16 18 17 17 17 20 16 15 14 14 18 15 19 26 17 12 12 11 10 13 16 8 7 8 8 8 9 9 9 10 10
17 16 15 16 15 16 17 17 16 17 17 16 18 19 19 18 18 18 17 18 18 16 19 15 14 13 17 12 9 10 9 4 18 11 9 8 7 7 8 8 9 8 8
19 19 17 16 16 17 17 16 16 19 21 20 21 18 17 16 16 17 16 16 17 18 15 18 13 15 19 11 13 10 9 10 14 10 15 10 9 9 8 7 7 6 6
21 21 20 20 19 20 21 20 19 21 22 20 20 17 16 17 18 16 16 16 18 19 20 20 15 17 18 23 11 10 12 2 12 15 12 16 12 10 9 9 8 7 6
21 21 22 21 22 24 25 24 22 23 23 24 23 23 22 21 20 22 20 19 19 19 18 17 20 18 15 13 12 12 9 11 15 21 15 18 19 8 13 12 11 12 12
22 23 24 24 25 25 26 26 27 28 28 28 28 28 25 25 23 21 20 20 20 19 18 17 17 19 17 15 15 12 14 13 15 16 17 18 21 17 14 15 18 19 18
27 27 29 29 31 34 31 31 31 32 28 27 26 26 26 26 26 25 22 21 21 21 21 20 21 19 17 15 15 15 14 14 16 17 17 19 20 23 18 19 20 21 22
32 35 36 37 36 34 32 35 33 32 31 29 29 28 29 29 25 27 27 25 25 25 24 23 23 18 17 18 18 17 17 17 18 20 19 18 20 26 23 22 21 24 23
41 38 39 37 38 37 33 33 33 34 32 33 32 30 27 25 26 25 25 24 24 16 16 16 16 19 20 21 20 19 20 19 20 19 17 16 19 23 25 20 17 19 19
34 41 36 34 33 26 25 26 22 24 31 25 17 14 16 19 24 24 24 20 15 17 17 17 19 21 22 22 20 19 19 19 18 23 21 18 20 20 23 26 23 16 18